FW1369 Weather Reports


Display with metric or nautical units.
time (UTC)temp
F
wind
direction
speed
MPH
gust
MPH
rain 1hr
in
rain 24hr
in
rain mn
in
humidity
%
barometer
mb
20180723075352 71 140 1.0 4.0 0.00 0.40 0.00 87 1011.4
20180723073851 71 178 1.0 6.0 0.00 0.40 0.00 86 1011.5
20180723072352 72 180 2.0 5.0 0.00 0.40 0.00 86 1011.4
20180723070852 72 154 1.0 5.0 0.00 0.40 0.00 86 1011.5
20180723065350 72 161 2.0 5.0 0.00 0.44 0.00 86 1011.6
20180723063850 72 160 0.0 7.0 0.00 0.44 0.00 86 1011.4
20180723062349 72 155 1.0 5.0 0.00 0.44 0.00 87 1011.4
20180723060850 72 183 2.0 5.0 0.00 0.44 0.00 87 1011.2
20180723055346 72 182 3.0 8.0 0.00 0.45 0.00 86 1011.3
20180723053846 72 205 2.0 7.0 0.00 0.45 0.00 86 1011.4
20180723052345 72 184 3.0 9.0 0.00 0.45 0.00 85 1011.2
20180723050850 72 199 2.0 8.0 0.00 0.45 0.00 85 1011.2
20180723045347 72 175 2.0 5.0 0.00 0.45 0.00 85 1011.2
20180723043846 72 183 2.0 9.0 0.00 0.45 0.00 85 1011.2
20180723042338 72 175 3.0 8.0 0.00 0.45 0.00 84 1011.5
20180723040840 73 188 3.0 10.0 0.00 0.45 0.00 84 1011.6
20180723035337 73 109 4.0 11.0 0.00 0.46 0.45 83 1011.4
20180723033834 73 160 2.0 8.0 0.00 0.46 0.45 82 1011.4
20180723032333 74 168 4.0 9.0 0.00 0.46 0.45 80 1011.5
20180723030834 74 172 3.0 7.0 0.00 0.46 0.45 80 1011.5
20180723025332 74 171 3.0 7.0 0.00 0.47 0.45 79 1011.7
20180723023833 74 178 1.0 4.0 0.00 0.47 0.45 79 1011.7
20180723022334 75 116 1.0 6.0 0.00 0.47 0.45 78 1011.8
20180723020933 75 48 0.0 3.0 0.00 0.47 0.45 76 1011.6
20180723015332 76 27 1.0 5.0 0.00 0.48 0.45 75 1011.2
20180723013832 76 167 0.0 1.0 0.00 0.48 0.45 74 1011.0
20180723012331 76 172 0.0 1.0 0.00 0.48 0.45 73 1011.1
20180723010828 77 172 0.0 1.0 0.00 0.48 0.45 71 1010.9
20180723005328 77 172 1.0 3.0 0.00 0.48 0.45 70 1010.8
20180723003827 78 162 0.0 5.0 0.00 0.48 0.45 69 1010.9
20180723002329 78 178 2.0 9.0 0.00 0.48 0.45 67 1010.7
20180723000826 79 216 2.0 8.0 0.00 0.48 0.45 67 1010.6
20180722235329 79 200 2.0 5.0 0.00 0.48 0.45 66 1010.4
20180722233829 79 170 2.0 11.0 0.00 0.48 0.45 66 1010.4
20180722232325 79 210 1.0 6.0 0.00 0.48 0.45 66 1010.3
20180722230827 79 199 3.0 7.0 0.00 0.48 0.45 66 1010.1
20180722225324 79 197 3.0 8.0 0.00 0.48 0.45 64 1010.0
20180722223823 80 165 3.0 10.0 0.00 0.48 0.45 64 1009.8
20180722222324 80 229 3.0 13.0 0.00 0.48 0.45 63 1009.5
20180722220822 80 155 3.0 13.0 0.00 0.48 0.45 62 1009.4
20180722215322 81 240 4.0 13.0 0.00 0.48 0.45 60 1009.4
20180722213823 81 166 5.0 16.0 0.00 0.48 0.45 59 1009.1
20180722212321 81 193 7.0 13.0 0.00 0.48 0.45 59 1009.2
20180722210822 82 185 7.0 14.0 0.00 0.48 0.45 58 1009.0
20180722205319 81 175 7.0 14.0 0.00 0.48 0.45 61 1008.7
20180722203819 81 163 6.0 14.0 0.00 0.48 0.45 61 1008.6
20180722202321 81 128 7.0 18.0 0.00 0.48 0.45 62 1008.4
20180722200817 81 232 3.0 12.0 0.00 0.48 0.45 63 1008.5
20180722195318 79 166 5.0 12.0 0.00 0.48 0.45 66 1008.4
20180722193814 80 272 5.0 15.0 0.00 0.48 0.45 62 1008.4
20180722192313 80 272 3.0 13.0 0.00 0.48 0.45 64 1008.3
20180722190812 80 184 5.0 12.0 0.00 0.48 0.45 64 1008.1
20180722185310 79 242 6.0 12.0 0.00 0.48 0.45 65 1008.0
20180722183808 79 221 10.0 16.0 0.00 0.48 0.45 65 1007.9
20180722182308 78 270 5.0 14.0 0.00 0.48 0.45 69 1007.6
20180722180808 77 227 6.0 18.0 0.00 0.48 0.45 67 1007.6
20180722175302 76 153 9.0 14.0 0.00 0.48 0.45 69 1007.2
20180722173800 75 261 6.0 19.0 0.00 0.48 0.45 71 1007.1
20180722172306 75 142 6.0 19.0 0.00 0.48 0.45 73 1007.0
20180722170803 75 167 6.0 15.0 0.00 0.48 0.45 72 1007.0
20180722165259 73 217 6.0 14.0 0.00 0.48 0.45 75 1006.8
20180722163802 74 190 6.0 16.0 0.00 0.48 0.45 75 1006.6
20180722162259 74 218 6.0 12.0 0.00 0.48 0.45 75 1006.4
20180722160758 74 152 3.0 15.0 0.00 0.48 0.45 77 1005.9
20180722155252 73 137 4.0 11.0 0.00 0.48 0.45 80 1005.7
20180722153752 72 204 3.0 15.0 0.00 0.48 0.45 84 1005.6
20180722152245 71 192 4.0 16.0 0.00 0.48 0.45 89 1005.3
20180722150744 72 142 8.0 17.0 0.00 0.48 0.45 88 1005.0
20180722145240 69 166 3.0 7.0 0.00 0.48 0.45 92 1004.7
20180722143740 69 183 3.0 9.0 0.00 0.48 0.45 92 1004.5
20180722142234 67 175 2.0 7.0 0.00 0.48 0.45 94 1004.4
20180722140732 66 178 2.0 10.0 0.00 0.48 0.45 93 1004.4
20180722135229 66 32 4.0 9.0 0.00 0.48 0.45 94 1004.2
20180722133728 65 173 2.0 10.0 0.00 0.48 0.45 94 1004.2
20180722132224 64 155 2.0 11.0 0.00 0.48 0.45 94 1004.3
20180722130721 63 29 4.0 9.0 0.00 0.48 0.45 94 1004.3
20180722125220 63 90 3.0 10.0 0.00 0.48 0.45 94 1004.4
20180722123719 62 154 3.0 9.0 0.00 0.48 0.45 93 1004.3
20180722122216 62 171 4.0 13.0 0.00 0.48 0.45 93 1004.3
20180722120714 62 346 4.0 9.0 0.00 0.48 0.45 93 1004.5
20180722115216 62 144 4.0 11.0 0.00 0.48 0.45 94 1004.6
20180722113714 61 50 4.0 12.0 0.01 0.48 0.45 94 1004.8
20180722112214 61 31 3.0 12.0 0.01 0.48 0.45 94 1004.7
20180722110712 62 31 3.0 10.0 0.01 0.48 0.45 94 1004.9
20180722105207 62 328 3.0 15.0 0.01 0.48 0.45 94 1005.0
20180722103704 62 264 4.0 13.0 0.10 0.47 0.44 94 1005.4
20180722102204 62 63 2.0 8.0 0.19 0.47 0.44 95 1005.3
20180722100703 61 111 3.0 10.0 0.25 0.47 0.44 95 1005.3
20180722095201 61 116 2.0 9.0 0.28 0.47 0.44 95 1005.2
20180722093700 61 90 2.0 8.0 0.19 0.36 0.33 94 1006.0
20180722092157 61 5 2.0 10.0 0.10 0.27 0.24 94 1006.2
20180722090654 61 52 3.0 6.0 0.06 0.22 0.19 94 1006.8
20180722085152 61 324 2.0 10.0 0.04 0.19 0.16 94 1007.2
20180722083651 61 38 1.0 6.0 0.04 0.17 0.14 94 1007.6
20180722082145 61 323 2.0 6.0 0.06 0.17 0.14 93 1008.2
20180722080644 61 86 1.0 6.0 0.06 0.16 0.13 93 1008.6